[[{"header":{"parameterUnit":"m.s-1","parameterCategory":1,"la1":30.2991,"la2":30.254,"lo1":-89.0895,"lo2":-89.0444,"dy":0.0017,"dx":0.0017,"nx":28,"ny":28,"refTime":"2025-04-09T21:00:00:Z","depth":0,"parameterNumber":2,"parameterNumberName":"U-component_of_WINDS"},"data":[0,0,0,0,0,0,0,0,0,0,0,0,0,0,0,0,0,0,0,0,0,0,0,0,0,0,0,0,0,0,0,0,0,0,0,0,0,0,0,0,0,0,0,0,0,0,0,0,0,0,0,0,0,0,0,0,0,0,-0.7165,-0.7164,0,-0.7148,-0.7148,-0.7148,-0.7097,-0.7096,-0.7095,-0.7094,-0.7079,-0.708,-0.708,0,0,0,0,0,0,0,0,0,0,0,0,0,-0.7154,-0.7154,-0.7165,-0.7164,-0.7164,-0.7148,-0.7148,-0.7148,-0.7097,-0.7096,-0.7094,-0.7093,-0.7079,-0.708,-0.708,0,0,0,0,0,0,0,0,0,0,0,0,0,-0.715,-0.7155,-0.7165,-0.7137,-0.7134,-0.7148,-0.7148,-0.7148,-0.7097,-0.7096,-0.7094,-0.7092,-0.7079,-0.708,-0.7081,-0.7121,0,0,-0.7084,-0.7084,0,0,0,0,0,0,0,0,-0.7151,-0.7151,-0.7141,-0.7139,-0.7136,-0.7123,-0.7139,-0.7139,-0.7098,-0.7112,-0.7094,-0.7092,-0.7095,-0.7095,-0.7095,-0.712,-0.7119,-0.7084,-0.7084,-0.7085,-0.7085,0,0,0,0,0,0,0,-0.7151,-0.7151,-0.7158,-0.7141,-0.7138,-0.7126,-0.7124,-0.7139,-0.7113,-0.711,-0.7106,-0.7105,-0.7093,-0.7095,-0.7095,-0.7119,-0.7084,-0.7085,-0.7085,-0.7086,-0.7176,-0.7178,0,0,0,0,0,0,-0.7155,-0.7152,-0.7159,-0.7158,-0.7139,-0.7128,-0.7125,-0.7129,-0.7113,-0.7109,-0.7107,-0.7103,-0.7094,-0.7094,-0.7094,-0.7141,-0.7085,-0.7086,-0.7086,-0.7175,-0.7177,-0.7179,0,0,0,0,0,0,-0.7155,-0.7156,-0.7159,-0.7154,-0.7153,-0.7129,-0.7134,-0.7129,-0.713,-0.711,-0.7105,-0.7112,-0.7092,-0.7093,-0.7114,-0.7139,-0.7086,-0.7087,-0.7172,-0.7175,-0.7178,-0.7234,0,0,0,0,0,0,-0.7155,-0.7156,-0.7171,-0.7154,-0.7154,-0.718,-0.7136,-0.713,-0.7132,-0.7127,-0.7114,-0.7111,-0.7091,-0.7113,-0.7115,-0.714,-0.7088,-0.717,-0.7174,-0.7177,-0.723,-0.7238,-0.7245,0,0,0,0,0,-0.7155,-0.7188,-0.7172,-0.7173,-0.7171,-0.7181,-0.7181,-0.7157,-0.7134,-0.7149,-0.7136,-0.7111,-0.7136,-0.7116,-0.7118,-0.7143,-0.7169,-0.7173,-0.7177,-0.7226,-0.7236,-0.7245,0,0,0,0,0,0,-0.7209,-0.7185,-0.7167,-0.7196,-0.7191,-0.7172,-0.7191,-0.7169,-0.7171,-0.7166,-0.7137,-0.7135,-0.7161,-0.7154,-0.7132,-0.7181,-0.7148,-0.7153,-0.7185,-0.7195,-0.7202,-0.7204,-0.7089,0,0,0,0,0,-0.7224,-0.7233,-0.7212,-0.7239,-0.7237,-0.7215,-0.7218,-0.72,-0.7194,-0.7192,-0.718,-0.7176,-0.7183,-0.7188,-0.7193,-0.7228,-0.7225,-0.7246,-0.7254,-0.726,-0.7265,-0.7284,-0.7293,-0.7192,-0.7192,-0.7192,0,0,-0.7255,-0.7243,-0.7251,-0.725,-0.7244,-0.7255,-0.7213,-0.7227,-0.7235,-0.7194,-0.7214,-0.7205,-0.7199,-0.7227,-0.7239,-0.7222,-0.7292,-0.7266,-0.7271,-0.7272,-0.7289,-0.7299,-0.7307,-0.7195,-0.7194,-0.7194,0,0,-0.7319,-0.731,-0.7332,-0.7327,-0.7318,-0.7302,-0.7308,-0.7293,-0.7285,-0.7305,-0.7274,-0.7284,-0.7296,-0.7293,-0.7293,-0.7355,-0.7332,-0.7357,-0.7399,-0.7417,-0.7425,-0.7432,-0.7455,-0.7464,-0.7362,-0.7362,-0.7362,0,-0.736,-0.7374,-0.7347,-0.7362,-0.7363,-0.7325,-0.7348,-0.7344,-0.7338,-0.734,-0.732,-0.7335,-0.7328,-0.7355,-0.7371,-0.7371,-0.7377,-0.7359,-0.7426,-0.7433,-0.7439,-0.7461,-0.7469,-0.7365,-0.7365,-0.7364,-0.7364,0,-0.7425,-0.7436,-0.7455,-0.7449,-0.7452,-0.7471,-0.7447,-0.7453,-0.7434,-0.7421,-0.7442,-0.7431,-0.7434,-0.7439,-0.7422,-0.7465,-0.7454,-0.7431,-0.7397,-0.7452,-0.7472,-0.748,-0.7369,-0.7368,-0.7367,-0.7367,0,0,-0.7524,-0.7502,-0.7509,-0.7506,-0.7494,-0.7502,-0.7519,-0.7521,-0.7527,-0.7524,-0.7539,-0.7549,-0.7528,-0.7528,-0.7509,-0.7525,-0.7576,-0.75,-0.7499,-0.7515,-0.7624,-0.7643,-0.7653,-0.756,-0.7562,-0.7563,-0.7625,0,-0.7585,-0.7613,-0.7589,-0.7622,-0.7632,-0.7596,-0.7611,-0.7605,-0.7593,-0.7601,-0.7587,-0.7596,-0.7566,-0.7566,-0.758,-0.7567,-0.7598,-0.7562,-0.7575,-0.7576,-0.7579,-0.7663,-0.7683,-0.7742,-0.7633,-0.7634,-0.7635,0,-0.766,-0.766,-0.7694,-0.7679,-0.7682,-0.7696,-0.7696,-0.7703,-0.7696,-0.7686,-0.7686,-0.7663,-0.768,-0.7646,-0.7669,-0.7645,-0.7649,-0.7644,-0.7645,-0.7647,-0.761,-0.7668,-0.776,-0.777,-0.7647,-0.7646,-0.7645,0,-0.773,-0.7738,-0.7759,-0.7758,-0.7741,-0.7751,-0.7745,-0.7736,-0.7739,-0.7739,-0.774,-0.7743,-0.7744,-0.7747,-0.7726,-0.7702,-0.7752,-0.7716,-0.7745,-0.7746,-0.7759,-0.7759,-0.7854,-0.7759,-0.7759,-0.7759,-0.7758,0,-0.7802,-0.7824,-0.779,-0.7804,-0.7828,-0.78,-0.7825,-0.7815,-0.7807,-0.7819,-0.7787,-0.7799,-0.7769,-0.7778,-0.7761,-0.7784,-0.7784,-0.7778,-0.7773,-0.7781,-0.7783,-0.7785,-0.7781,-0.7761,-0.776,-0.776,-0.7759,0,-0.7885,-0.7863,-0.7884,-0.7866,-0.7861,-0.788,-0.7865,-0.7877,-0.7862,-0.7877,-0.7879,-0.7857,-0.7865,-0.7844,-0.7849,-0.7838,-0.7871,-0.7859,-0.7873,-0.787,-0.7901,-0.7899,-0.8003,-0.8015,-0.7911,-0.7912,-0.7913,0,-0.7933,-0.7949,-0.7932,-0.7937,-0.7932,-0.7941,-0.7943,-0.7916,-0.792,-0.7913,-0.7926,-0.7932,-0.7935,-0.795,-0.7935,-0.7939,-0.7928,-0.7964,-0.7929,-0.7937,-0.793,-0.793,-0.7932,-0.7972,-0.7973,-0.7974,-0.7975,0,-0.8021,-0.8009,-0.8013,-0.8014,-0.8017,-0.8017,-0.8014,-0.802,-0.7991,-0.7997,-0.8005,-0.8008,-0.8013,-0.8019,-0.802,-0.8014,-0.7991,-0.7986,-0.7994,-0.8003,-0.8011,-0.8008,-0.7895,-0.7984,-0.7984,-0.7983,-0.7982,-0.7982,-0.8088,-0.8101,-0.8092,-0.8098,-0.8092,-0.8091,-0.8101,-0.8088,-0.8093,-0.8095,-0.8079,-0.809,-0.8083,-0.8081,-0.8078,-0.8087,-0.8071,-0.8081,-0.8084,-0.8087,-0.8093,-0.8008,-0.8087,-0.8086,-0.8086,-0.8086,-0.8086,0,-0.8176,-0.8167,-0.8173,-0.817,-0.8175,-0.8151,-0.8146,-0.8153,-0.8163,-0.8158,-0.8161,-0.8171,-0.8177,-0.8162,-0.8166,-0.8176,-0.8165,-0.8178,-0.8178,-0.8177,-0.8106,-0.81,-0.8187,-0.8187,-0.8187,-0.8187,-0.8187,-0.8187,-0.8222,-0.8243,-0.823,-0.8249,-0.824,-0.8251,-0.8251,-0.8249,-0.8245,-0.8256,-0.8261,-0.8251,-0.8242,-0.8245,-0.8249,-0.8245,-0.8248,-0.8265,-0.8257,-0.8192,-0.8182,-0.8173,-0.8167,-0.8266,-0.8266,-0.8327,-0.8328,-0.8328]},{"header":{"parameterUnit":"m.s-1","parameterCategory":1,"la1":30.2991,"la2":30.254,"lo1":-89.0895,"lo2":-89.0444,"dy":0.0017,"dx":0.0017,"nx":28,"ny":28,"refTime":"2025-04-09T21:00:00:Z","depth":0,"parameterNumber":3,"parameterNumberName":"V-component_of_WINDS"},"data":[0,0,0,0,0,0,0,0,0,0,0,0,0,0,0,0,0,0,0,0,0,0,0,0,0,0,0,0,0,0,0,0,0,0,0,0,0,0,0,0,0,0,0,0,0,0,0,0,0,0,0,0,0,0,0,0,0,0,-1.9633,-1.9634,0,-1.969,-1.9691,-1.9692,-1.9682,-1.9681,-1.968,-1.9679,-1.9735,-1.9737,-1.9739,0,0,0,0,0,0,0,0,0,0,0,0,0,-1.9514,-1.9516,-1.9633,-1.9634,-1.9635,-1.969,-1.9691,-1.9692,-1.9682,-1.9681,-1.968,-1.9679,-1.9734,-1.9737,-1.974,0,0,0,0,0,0,0,0,0,0,0,0,0,-1.9568,-1.9517,-1.9633,-1.9637,-1.9638,-1.969,-1.9691,-1.9692,-1.9683,-1.9681,-1.968,-1.9678,-1.9733,-1.9737,-1.974,-1.9792,0,0,-1.9751,-1.9753,0,0,0,0,0,0,0,0,-1.9565,-1.9572,-1.9636,-1.9637,-1.9638,-1.9678,-1.9669,-1.9725,-1.9683,-1.9666,-1.9679,-1.9678,-1.9717,-1.9722,-1.9735,-1.9794,-1.9796,-1.9751,-1.9754,-1.9755,-1.9756,0,0,0,0,0,0,0,-1.9561,-1.957,-1.9656,-1.9637,-1.9638,-1.9635,-1.9641,-1.968,-1.9699,-1.9667,-1.9666,-1.9673,-1.9717,-1.9732,-1.9737,-1.9797,-1.9751,-1.9754,-1.9757,-1.9758,-1.9902,-1.9903,0,0,0,0,0,0,-1.9557,-1.9567,-1.9654,-1.9657,-1.9597,-1.9638,-1.9645,-1.9666,-1.9698,-1.9702,-1.9675,-1.9673,-1.9727,-1.9733,-1.9739,-1.9802,-1.9755,-1.9758,-1.976,-1.99,-1.9902,-1.9904,0,0,0,0,0,0,-1.9554,-1.9564,-1.9652,-1.9612,-1.9623,-1.9642,-1.9666,-1.9668,-1.9683,-1.9704,-1.9707,-1.9687,-1.9726,-1.9734,-1.9779,-1.9803,-1.976,-1.9763,-1.9898,-1.9901,-1.9903,-1.9928,0,0,0,0,0,0,-1.9551,-1.9564,-1.9584,-1.9613,-1.9625,-1.9692,-1.9667,-1.967,-1.969,-1.9688,-1.9716,-1.9719,-1.9725,-1.9774,-1.9782,-1.9808,-1.9766,-1.9896,-1.9899,-1.9902,-1.9925,-1.9931,-1.9936,0,0,0,0,0,-1.9546,-1.9588,-1.9585,-1.9596,-1.9651,-1.9693,-1.97,-1.9707,-1.9692,-1.9712,-1.9726,-1.9718,-1.9799,-1.9778,-1.9788,-1.9815,-1.9894,-1.9898,-1.9902,-1.9922,-1.993,-1.9936,0,0,0,0,0,0,-1.9561,-1.9592,-1.9589,-1.9641,-1.9665,-1.9692,-1.9718,-1.9714,-1.9742,-1.9739,-1.9745,-1.9752,-1.9798,-1.9811,-1.9787,-1.9866,-1.9844,-1.985,-1.9857,-1.9864,-1.9869,-1.9865,-1.9769,0,0,0,0,0,-1.957,-1.9603,-1.9628,-1.9671,-1.9683,-1.9698,-1.9717,-1.972,-1.9745,-1.9754,-1.9771,-1.9794,-1.9825,-1.9845,-1.9874,-1.9926,-1.9932,-1.9949,-1.9955,-1.9959,-1.9965,-1.9994,-2.0002,-1.9916,-1.9916,-1.9916,0,0,-1.9589,-1.961,-1.963,-1.9674,-1.9693,-1.9726,-1.9707,-1.9742,-1.9767,-1.9759,-1.9804,-1.9817,-1.9843,-1.9892,-1.9915,-1.9904,-1.999,-1.9964,-1.9968,-1.997,-1.9998,-2.0007,-2.0014,-1.9919,-1.9918,-1.9918,0,0,-1.9642,-1.9661,-1.97,-1.9719,-1.9748,-1.9758,-1.9767,-1.9795,-1.9804,-1.9849,-1.9844,-1.9872,-1.9925,-1.9944,-1.9961,-2.0021,-2.0015,-2.003,-2.0059,-2.0087,-2.0094,-2.01,-2.0122,-2.013,-2.0035,-2.0035,-2.0035,0,-1.9662,-1.9713,-1.972,-1.9757,-1.9776,-1.9772,-1.9811,-1.9829,-1.9866,-1.9879,-1.9867,-1.9933,-1.9951,-2.0005,-2.0019,-2.0033,-2.0043,-2.0027,-2.0093,-2.0099,-2.0105,-2.0126,-2.0134,-2.0037,-2.0036,-2.0036,-2.0036,0,-1.9736,-1.9771,-1.9799,-1.9836,-1.9859,-1.9896,-1.9909,-1.993,-1.9932,-1.9943,-1.9988,-2.0009,-2.0042,-2.0055,-2.0056,-2.011,-2.0102,-2.0091,-2.007,-2.0114,-2.0134,-2.0143,-2.0039,-2.0038,-2.0038,-2.0038,0,0,-1.98,-1.9841,-1.9851,-1.9868,-1.99,-1.9927,-1.9964,-1.9998,-2.0017,-2.0042,-2.0073,-2.0118,-2.0109,-2.0127,-2.013,-2.0155,-2.0202,-2.0141,-2.0142,-2.0153,-2.0263,-2.0272,-2.0281,-2.0199,-2.02,-2.0202,-2.0261,0,-1.9856,-1.9923,-1.9931,-1.999,-2.0023,-2.0019,-2.0052,-2.0074,-2.0086,-2.0114,-2.0126,-2.0158,-2.0143,-2.0154,-2.0178,-2.0192,-2.0225,-2.0187,-2.0228,-2.0229,-2.0223,-2.0291,-2.0301,-2.0356,-2.0269,-2.027,-2.0271,0,-1.993,-1.996,-2.0023,-2.0051,-2.0065,-2.0094,-2.0126,-2.0154,-2.0179,-2.0186,-2.0207,-2.0207,-2.0245,-2.0221,-2.0273,-2.0247,-2.0264,-2.0273,-2.0275,-2.028,-2.0254,-2.0299,-2.0374,-2.0382,-2.0283,-2.0283,-2.0282,0,-1.9971,-2.0026,-2.0071,-2.0086,-2.0119,-2.014,-2.0155,-2.0179,-2.0199,-2.0227,-2.024,-2.0271,-2.0288,-2.0312,-2.032,-2.0302,-2.0372,-2.0349,-2.0378,-2.0378,-2.0394,-2.0393,-2.0474,-2.0403,-2.0403,-2.0403,-2.0403,0,-2.0034,-2.0073,-2.009,-2.0118,-2.0162,-2.017,-2.0212,-2.0226,-2.0247,-2.0277,-2.0275,-2.0303,-2.0312,-2.0341,-2.0347,-2.039,-2.0397,-2.0403,-2.0405,-2.0404,-2.0403,-2.0416,-2.0412,-2.0405,-2.0405,-2.0404,-2.0404,0,-2.0087,-2.01,-2.015,-2.0178,-2.0186,-2.0217,-2.024,-2.0267,-2.0278,-2.0316,-2.0325,-2.0342,-2.0376,-2.0386,-2.0427,-2.0431,-2.0482,-2.0479,-2.0474,-2.0474,-2.0503,-2.0501,-2.0595,-2.0608,-2.0529,-2.0529,-2.053,0,-2.0127,-2.0157,-2.0189,-2.021,-2.0226,-2.0258,-2.0279,-2.0288,-2.031,-2.0341,-2.0364,-2.0398,-2.0426,-2.0481,-2.0496,-2.0528,-2.0526,-2.0557,-2.0531,-2.053,-2.0528,-2.0526,-2.053,-2.0562,-2.0563,-2.0564,-2.0565,0,-2.0196,-2.0201,-2.0232,-2.0266,-2.0291,-2.0317,-2.0343,-2.0359,-2.0372,-2.0396,-2.0432,-2.0454,-2.0496,-2.053,-2.0562,-2.0576,-2.0573,-2.0573,-2.0581,-2.0581,-2.0577,-2.0581,-2.0488,-2.0571,-2.057,-2.057,-2.0569,-2.0569,-2.0244,-2.0271,-2.0298,-2.0333,-2.0353,-2.0377,-2.0404,-2.0418,-2.0449,-2.0485,-2.0488,-2.0527,-2.0551,-2.0594,-2.061,-2.064,-2.0631,-2.0643,-2.0646,-2.0649,-2.0652,-2.0572,-2.0645,-2.0645,-2.0645,-2.0645,-2.0645,0,-2.0314,-2.0331,-2.0363,-2.0399,-2.0427,-2.0422,-2.0449,-2.0472,-2.0507,-2.0531,-2.0559,-2.06,-2.0633,-2.0651,-2.0684,-2.0704,-2.0704,-2.0713,-2.0712,-2.0715,-2.0658,-2.0648,-2.0713,-2.0713,-2.0713,-2.0713,-2.0713,-2.0713,-2.0353,-2.0399,-2.0408,-2.0463,-2.048,-2.0519,-2.0536,-2.0558,-2.0577,-2.0623,-2.0651,-2.0663,-2.0685,-2.0719,-2.0749,-2.0753,-2.0766,-2.0776,-2.078,-2.0726,-2.0719,-2.0712,-2.0703,-2.0779,-2.0779,-2.0835,-2.0835,-2.0835]}]]